Regional Weather Roundup
Issued by NWS

Home | Current Version | Previous Version | Text Only | Print | Product List | Glossary On
Versions: 1 2 3 4 5 6 7 8 9 10 11 12 13 14 15 16 17 18 19 20 21 22 23 24 25 26 27 28 29 30 31 32 33 34 35 36 37 38 39 40 41 42 43 44 45 46 47 48 49 50
000
ASUS45 KCYS 180010
RWRWY

WYOMING REGIONAL WEATHER ROUNDUP
NATIONAL WEATHER SERVICE CHEYENNE WY
500 PM MST WED JAN 17 2018

NOTE:  "FAIR" INDICATES FEW OR NO CLOUDS BELOW 12,000 FEET
WITH NO SIGNIFICANT WEATHER AND/OR OBSTRUCTIONS TO VISIBILITY.

WYZ001-180100-
YELLOWSTONE NATIONAL PARK

CITY           SKY/WX    TMP DP  RH WIND       PRES   REMARKS
LK YELLOWSTONE   N/A     26  21  81 CALM      30.34S
6HR MIN TEMP:  17; 6HR MAX TEMP:  27;

W YELLOWSTONE  NOT AVBL

$$
WYZ002>013-054>058-071-098>099-180100-
NORTHERN WYOMING

CITY           SKY/WX    TMP DP  RH WIND       PRES   REMARKS
JACKSON        FAIR      23  14  68 CALM      30.37S
CODY           FAIR      27  19  72 CALM      30.20F
GREYBULL       FAIR      17  11  77 NW8       30.23F WCI   7
6HR MIN TEMP:  13; 6HR MAX TEMP:  25;

WORLAND        FAIR      23  15  71 CALM      30.22S
6HR MIN TEMP:  11; 6HR MAX TEMP:  28; 6HR PCP: TRACE;

SHERIDAN       FAIR      26  17  68 SW7       30.12F WCI  18
6HR MIN TEMP:  25; 6HR MAX TEMP:  46;

BUFFALO        FAIR      36  19  50 MISG      30.15F
6HR MIN TEMP:  30; 6HR MAX TEMP:  42;

GILLETTE       FAIR      36  23  59 SE5       30.16F WCI  32
6HR MIN TEMP:  34; 6HR MAX TEMP:  41;

HULETT         FAIR      36  21  55 SW13      30.18F WCI  27
NEWCASTLE      FAIR      32  19  59 N5        30.22F WCI  27

$$
WYZ014>020-022>026-101>103-180100-
CENTRAL WYOMING

CITY           SKY/WX    TMP DP  RH WIND       PRES   REMARKS
BIG PINEY      FAIR      31  20  63 NE9       30.34S WCI  23
6HR MIN TEMP:  28; 6HR MAX TEMP:  40;

PINEDALE       FAIR      25  18  74 N5        30.36S WCI  19
DUBOIS         FAIR      36  10  35 NW16      30.25S WCI  26
LANDER         FAIR      27  18  69 CALM      30.25F
6HR MIN TEMP:  21; 6HR MAX TEMP:  30;

RIVERTON       FAIR      22  12  65 NW6       30.27S WCI  14
6HR MIN TEMP:  19; 6HR MAX TEMP:  28;

CASPER         FAIR      37  17  44 SW15      30.23F WCI  28
6HR MIN TEMP:  37; 6HR MAX TEMP:  43;

DOUGLAS        FAIR      37  22  54 SE5       30.23S WCI  33
6HR MIN TEMP:  37; 6HR MAX TEMP:  48;


$$
WYZ021-027>030-104>119-180100-
SOUTHERN WYOMING

CITY           SKY/WX    TMP DP  RH WIND       PRES   REMARKS
EVANSTON       FAIR      36  27  69 W10       30.35R WCI  28
6HR MIN TEMP:  32; 6HR MAX TEMP:  41;

FORT BRIDGER   FAIR      40  25  56 W8        30.37R WCI  34
ROCK SPRINGS   FAIR      36  23  59 MISG      30.32R
6HR MIN TEMP:  33; 6HR MAX TEMP:  41;

DIXON            N/A     38  13  36 S5        30.36S WCI  34
RAWLINS        FAIR      35  18  49 SW8       30.31S WCI  29
6HR MIN TEMP:  30; 6HR MAX TEMP:  40;

SARATOGA       FAIR      32  16  51 W8        30.30F WCI  25
LARAMIE        FAIR      35  14  42 N5        30.26F WCI  31
6HR MIN TEMP:  33; 6HR MAX TEMP:  41;

CHEYENNE       FAIR      39  16  39 N8        30.25F WCI  33
6HR MIN TEMP:  39; 6HR MAX TEMP:  46;

TORRINGTON     FAIR      42  25  50 CALM      30.23F
6HR MIN TEMP:  36; 6HR MAX TEMP:  48;


$$



USA.gov is the U.S. government's official web portal to all federal, state and local government web resources and services.